Regional Weather Roundup
Issued by NWS

Home | Current Version | Previous Version | Graphics & Text | Print | Product List | Glossary On
Versions: 1 2 3 4 5 6 7 8 9 10 11 12 13 14 15 16 17 18 19 20 21 22 23 24 25 26 27 28 29 30 31 32 33 34 35 36 37 38 39 40 41 42 43 44 45 46 47 48 49 50
000
ASUS43 KBIS 151210
RWRND

NORTH DAKOTA REGIONAL WEATHER ROUNDUP
NATIONAL WEATHER SERVICE BISMARCK ND
700 AM CDT TUE APR 15 2014

NOTE: "FAIR" INDICATES FEW OR NO CLOUDS BELOW 12,000 FEET WITH NO
SIGNIFICANT WEATHER AND/OR OBSTRUCTIONS TO VISIBILITY.


NDZ001>003-009>011-017-151300-
NORTHWEST NORTH DAKOTA

CITY           SKY/WX    TMP DP  RH WIND       PRES   REMARKS
WILLISTON      PTCLDY    25  10  53 SE9       29.84F WCI  15
6HR MIN TEMP:  24; 6HR MAX TEMP:  25;

MINOT          PTCLDY    19   9  65 SE10      29.98F WCI   7
MINOT AFB      PTCLDY    19  10  67 SE12      29.98F WCI   7
$$

NDZ018>021-031>035-040>046-151300-
SOUTHWEST NORTH DAKOTA

CITY           SKY/WX    TMP DP  RH WIND       PRES   REMARKS
BISMARCK       CLEAR     18  11  74 SE8       30.03F WCI   8
6HR MIN TEMP:  15; 6HR MAX TEMP:  19;

DICKINSON      MOCLDY    22  10  60 SE18      29.83F WCI   7
GARRISON         N/A     19  11  70 SE10      29.96F WCI   7
6HR MIN TEMP:  18; 6HR MAX TEMP:  20;

HETTINGER ARPT CLOUDY    21  11  65 SE14      29.86F WCI   8
$$

NDZ004>008-012>016-024-026-027-054-151300-
NORTHEAST NORTH DAKOTA

CITY           SKY/WX    TMP DP  RH WIND       PRES   REMARKS
GRAND FORKS    PTCLDY    15   6  67 CALM      30.14S
GRND FRKS AFB  CLEAR     14   5  68 CALM      30.17S
DEVILS LAKE    PTCLDY    16   7  67 S6        30.09S WCI   7
$$

NDZ022-023-025-028>030-036>039-047>053-151300-
SOUTHEAST NORTH DAKOTA

CITY           SKY/WX    TMP DP  RH WIND       PRES   REMARKS
FARGO          CLEAR     13   9  84 CALM      30.17S
6HR MIN TEMP:  12; 6HR MAX TEMP:  16;

JAMESTOWN      CLEAR     15  11  83 S7        30.10F WCI   5
$$




USA.gov is the U.S. government's official web portal to all federal, state and local government web resources and services.